User: anonymous   Login
Location: Unspecified
(0.0000°N, 0.0000°E)
Time: 05:11:04
(UTC+00:00)
Language:

TMSAT-1 - Orbit

View from above orbital plane
View from above orbital plane
View from above satellite
View from above satellite

Ground track
Ground track

The orbit data is extracted from the following two-line orbital elements,

1 25396U 98043C   19348.12408662  .00000009  00000-0  22626-4 0  9994
2 25396  98.6858 286.7030 0002385 176.7714 183.3481 14.24532665113728
Epoch (UTC): 14 December 2019 02:58:41
Eccentricity: 0.0002385
inclination: 98.6858°
perigee height: 808 km
apogee height: 812 km
right ascension of ascending node: 286.7030°
argument of perigee: 176.7714°
revolutions per day: 14.24532665
mean anomaly at epoch: 183.3481°
orbit number at epoch: 11372

The dashed part of the orbit path shows where the satellite is in the earth's shadow,  

DLR